• In Germany
  • List of Countries
  • For 7 days
  • Water Temperature
  • Satellite Maps
  • Weather Map
  • Weather Widgets
  • user-avatar
    Login

    Hourly Weather Sharan

    Today, 21 July, Friday

    Time Temperature Precipitation Wind Pressure Humidity
    00:00 +26°C° 0 mm 3 mps 586 mmHg 45%
    01:00 +26°C° 0 mm 3 mps 585 mmHg 48%
    02:00 +25°C° 0 mm 2 mps 585 mmHg 50%
    03:00 +25°C° 0 mm 2 mps 585 mmHg 51%
    04:00 +24°C° 0 mm 2 mps 585 mmHg 52%
    05:00 +24°C° 0 mm 2 mps 585 mmHg 54%
    06:00 +24°C° 0 mm 2 mps 585 mmHg 50%
    07:00 +25°C° 0 mm 2 mps 586 mmHg 46%
    08:00 +25°C° 0 mm 1 mps 586 mmHg 42%
    09:00 +27°C° 0 mm 1 mps 587 mmHg 37%
    10:00 +28°C° 0 mm 1 mps 587 mmHg 31%
    11:00 +29°C° 0 mm 1 mps 588 mmHg 26%
    12:00 +30°C° 0 mm 1 mps 588 mmHg 23%
    13:00 +31°C° 0 mm 1 mps 588 mmHg 21%
    14:00 +32°C° 0 mm 1 mps 588 mmHg 18%
    15:00 +32°C° 0 mm 2 mps 587 mmHg 18%
    16:00 +32°C° 0 mm 2 mps 587 mmHg 19%
    17:00 +34°C° 0 mm 3 mps 587 mmHg 19%
    18:00 +33°C° 0 mm 3 mps 587 mmHg 23%
    19:00 +32°C° 0 mm 4 mps 586 mmHg 28%
    20:00 +30°C° 0 mm 4 mps 586 mmHg 32%
    21:00 +29°C° 0 mm 4 mps 586 mmHg 37%
    22:00 +28°C° 0 mm 4 mps 586 mmHg 41%
    23:00 +27°C° 0 mm 4 mps 586 mmHg 46%

    Tomorrow, 22 July, Saturday

    Time Temperature Precipitation Wind Pressure Humidity
    00:00 +27°C° 0.1 mm 4 mps 586 mmHg 47%
    01:00 +26°C° 0.1 mm 3 mps 586 mmHg 48%
    02:00 +26°C° 0.1 mm 3 mps 586 mmHg 49%
    03:00 +25°C° 0 mm 3 mps 586 mmHg 49%
    04:00 +25°C° 0 mm 2 mps 585 mmHg 49%
    05:00 +24°C° 0 mm 2 mps 585 mmHg 50%
    06:00 +25°C° 0 mm 2 mps 586 mmHg 46%
    07:00 +25°C° 0 mm 2 mps 586 mmHg 42%
    08:00 +26°C° 0 mm 2 mps 587 mmHg 38%
    09:00 +27°C° 0 mm 2 mps 587 mmHg 35%
    10:00 +28°C° 0 mm 2 mps 587 mmHg 32%
    11:00 +29°C° 0 mm 2 mps 588 mmHg 29%
    12:00 +30°C° 0 mm 2 mps 588 mmHg 26%
    13:00 +31°C° 0 mm 1 mps 588 mmHg 23%
    14:00 +32°C° 0 mm 1 mps 588 mmHg 21%
    15:00 +32°C° 0 mm 2 mps 587 mmHg 21%
    16:00 +33°C° 0 mm 3 mps 587 mmHg 22%
    17:00 +33°C° 0 mm 3 mps 587 mmHg 23%
    18:00 +32°C° 0.1 mm 4 mps 587 mmHg 28%
    19:00 +30°C° 0.1 mm 4 mps 586 mmHg 32%
    20:00 +29°C° 0.1 mm 5 mps 586 mmHg 37%
    21:00 +28°C° 0.1 mm 5 mps 586 mmHg 40%
    22:00 +28°C° 0.1 mm 5 mps 587 mmHg 44%
    23:00 +27°C° 0.1 mm 5 mps 587 mmHg 47%

    Day after tomorrow, 23 July, Sunday

    Time Temperature Precipitation Wind Pressure Humidity
    00:00 +26°C° 0.7 mm 4 mps 586 mmHg 47%
    01:00 +26°C° 0.7 mm 3 mps 586 mmHg 48%
    02:00 +25°C° 0.7 mm 2 mps 586 mmHg 48%
    03:00 +25°C° 0.2 mm 2 mps 586 mmHg 47%
    04:00 +25°C° 0.2 mm 2 mps 586 mmHg 45%
    05:00 +25°C° 0.2 mm 2 mps 586 mmHg 44%
    06:00 +25°C° 0.1 mm 2 mps 586 mmHg 41%
    07:00 +25°C° 0.1 mm 2 mps 586 mmHg 38%
    08:00 +26°C° 0.1 mm 2 mps 587 mmHg 35%
    09:00 +27°C° 0 mm 2 mps 587 mmHg 33%
    10:00 +28°C° 0 mm 1 mps 587 mmHg 31%
    11:00 +29°C° 0 mm 1 mps 587 mmHg 29%
    12:00 +30°C° 0 mm 1 mps 587 mmHg 26%
    13:00 +31°C° 0 mm 1 mps 587 mmHg 23%
    14:00 +32°C° 0 mm 2 mps 587 mmHg 20%
    15:00 +32°C° 0 mm 2 mps 587 mmHg 20%
    16:00 +32°C° 0 mm 2 mps 587 mmHg 20%
    17:00 +32°C° 0 mm 2 mps 587 mmHg 20%
    18:00 +31°C° 0 mm 3 mps 587 mmHg 25%
    19:00 +30°C° 0 mm 3 mps 586 mmHg 31%
    20:00 +29°C° 0 mm 4 mps 586 mmHg 36%
    21:00 +28°C° 0.4 mm 4 mps 586 mmHg 41%
    22:00 +27°C° 0.4 mm 4 mps 586 mmHg 46%
    23:00 +26°C° 0.4 mm 4 mps 586 mmHg 51%

    24 July, Monday

    Time Temperature Precipitation Wind Pressure Humidity
    00:00 +26°C° 0.3 mm 3 mps 586 mmHg 53%
    01:00 +26°C° 0.3 mm 3 mps 586 mmHg 55%
    02:00 +25°C° 0.3 mm 2 mps 586 mmHg 57%
    03:00 +25°C° 0.1 mm 2 mps 585 mmHg 57%
    04:00 +24°C° 0.1 mm 2 mps 585 mmHg 58%
    05:00 +24°C° 0.1 mm 2 mps 585 mmHg 58%
    06:00 +24°C° 0 mm 2 mps 585 mmHg 54%
    07:00 +25°C° 0 mm 1 mps 586 mmHg 50%
    08:00 +25°C° 0 mm 1 mps 586 mmHg 46%
    09:00 +26°C° 0 mm 1 mps 586 mmHg 41%
    10:00 +27°C° 0 mm 1 mps 586 mmHg 36%
    11:00 +28°C° 0 mm 1 mps 587 mmHg 31%
    12:00 +29°C° 0 mm 1 mps 586 mmHg 27%
    13:00 +31°C° 0 mm 1 mps 586 mmHg 23%
    14:00 +32°C° 0 mm 2 mps 586 mmHg 20%
    15:00 +32°C° 0 mm 2 mps 586 mmHg 19%
    16:00 +32°C° 0 mm 2 mps 586 mmHg 18%
    17:00 +34°C° 0 mm 2 mps 586 mmHg 18%
    18:00 +32°C° 0 mm 2 mps 586 mmHg 22%
    19:00 +31°C° 0 mm 3 mps 586 mmHg 26%
    20:00 +30°C° 0 mm 3 mps 586 mmHg 30%
    21:00 +29°C° 0.1 mm 3 mps 586 mmHg 37%
    22:00 +28°C° 0.1 mm 4 mps 585 mmHg 43%
    23:00 +27°C° 0.1 mm 5 mps 585 mmHg 50%

    25 July, Tuesday

    Time Temperature Precipitation Wind Pressure Humidity
    00:00 +26°C° 0.1 mm 4 mps 585 mmHg 52%
    01:00 +26°C° 0.1 mm 3 mps 585 mmHg 54%
    02:00 +25°C° 0.1 mm 3 mps 584 mmHg 56%
    03:00 +25°C° 0 mm 2 mps 584 mmHg 57%
    04:00 +24°C° 0 mm 2 mps 584 mmHg 59%
    05:00 +24°C° 0 mm 2 mps 584 mmHg 60%
    06:00 +24°C° 0 mm 2 mps 584 mmHg 57%
    07:00 +25°C° 0 mm 1 mps 585 mmHg 54%
    08:00 +25°C° 0 mm 1 mps 585 mmHg 50%
    09:00 +26°C° 0 mm 1 mps 585 mmHg 44%
    10:00 +28°C° 0 mm 1 mps 586 mmHg 38%
    11:00 +29°C° 0 mm 1 mps 586 mmHg 32%
    12:00 +30°C° 0 mm 1 mps 586 mmHg 28%
    13:00 +31°C° 0 mm 1 mps 586 mmHg 25%
    14:00 +32°C° 0 mm 2 mps 586 mmHg 22%
    15:00 +32°C° 0 mm 2 mps 586 mmHg 21%
    16:00 +32°C° 0 mm 2 mps 586 mmHg 21%
    17:00 +34°C° 0 mm 2 mps 586 mmHg 21%
    18:00 +33°C° 0 mm 3 mps 586 mmHg 24%
    19:00 +31°C° 0 mm 3 mps 586 mmHg 27%
    20:00 +31°C° 0 mm 3 mps 586 mmHg 30%
    21:00 +30°C° 0 mm 4 mps 586 mmHg 36%
    22:00 +29°C° 0 mm 4 mps 586 mmHg 42%
    23:00 +28°C° 0 mm 5 mps 586 mmHg 47%

    26 July, Wednesday

    Time Temperature Precipitation Wind Pressure Humidity
    00:00 +27°C° 0.1 mm 4 mps 585 mmHg 50%
    01:00 +26°C° 0.1 mm 4 mps 585 mmHg 52%
    02:00 +26°C° 0.1 mm 3 mps 585 mmHg 55%
    03:00 +25°C° 0 mm 3 mps 585 mmHg 56%
    04:00 +25°C° 0 mm 2 mps 585 mmHg 57%
    05:00 +25°C° 0 mm 2 mps 585 mmHg 58%
    06:00 +25°C° 0 mm 2 mps 585 mmHg 55%
    07:00 +25°C° 0 mm 1 mps 586 mmHg 52%
    08:00 +26°C° 0 mm 1 mps 586 mmHg 49%
    09:00 +27°C° 0 mm 1 mps 587 mmHg 43%
    10:00 +28°C° 0 mm 1 mps 587 mmHg 37%
    11:00 +29°C° 0 mm 1 mps 587 mmHg 31%
    12:00 +30°C° 0 mm 1 mps 587 mmHg 28%
    13:00 +31°C° 0 mm 1 mps 587 mmHg 26%
    14:00 +32°C° 0 mm 2 mps 587 mmHg 23%
    15:00 +34°C° 0 mm 2 mps 587 mmHg 23%
    16:00 +34°C° 0 mm 2 mps 587 mmHg 22%
    17:00 +34°C° 0 mm 3 mps 587 mmHg 22%
    18:00 +34°C° 0 mm 3 mps 587 mmHg 25%
    19:00 +33°C° 0 mm 3 mps 587 mmHg 27%
    20:00 +31°C° 0 mm 3 mps 587 mmHg 30%
    21:00 +30°C° 0 mm 4 mps 587 mmHg 35%
    22:00 +29°C° 0 mm 4 mps 587 mmHg 39%
    23:00 +28°C° 0 mm 4 mps 587 mmHg 44%
    Show more